• In Portugal
  • List of Countries
  • For 7 days
  • Water Temperature
  • Satellite Maps
  • Weather Map
  • Weather Widgets
  • user-avatar
    Login

    Hourly Weather São Paulo

    Today, 17 October, Tuesday

    Time Temperature Precipitation Wind Pressure Humidity
    00:00 +18°C° 0 mm 3 mps 702 mmHg 87%
    01:00 +18°C° 0 mm 3 mps 702 mmHg 87%
    02:00 +18°C° 0 mm 3 mps 702 mmHg 87%
    03:00 +18°C° 0 mm 3 mps 702 mmHg 87%
    04:00 +18°C° 0 mm 3 mps 702 mmHg 88%
    05:00 +18°C° 0 mm 3 mps 702 mmHg 88%
    06:00 +18°C° 0 mm 2 mps 702 mmHg 89%
    07:00 +19°C° 0 mm 2 mps 703 mmHg 81%
    08:00 +21°C° 0 mm 2 mps 704 mmHg 73%
    09:00 +24°C° 0 mm 3 mps 704 mmHg 64%
    10:00 +25°C° 0 mm 3 mps 704 mmHg 59%
    11:00 +27°C° 0 mm 2 mps 704 mmHg 54%
    12:00 +29°C° 0 mm 2 mps 704 mmHg 49%
    13:00 +29°C° 0 mm 2 mps 703 mmHg 49%
    14:00 +29°C° 0 mm 3 mps 703 mmHg 48%
    15:00 +29°C° 0 mm 3 mps 702 mmHg 48%
    16:00 +28°C° 0 mm 3 mps 702 mmHg 55%
    17:00 +26°C° 0 mm 3 mps 702 mmHg 63%
    18:00 +24°C° 0 mm 2 mps 701 mmHg 70%
    19:00 +24°C° 0 mm 2 mps 701 mmHg 74%
    20:00 +23°C° 0 mm 2 mps 702 mmHg 78%
    21:00 +22°C° 0 mm 1 mps 702 mmHg 82%
    22:00 +21°C° 0 mm 1 mps 702 mmHg 82%
    23:00 +21°C° 0 mm 1 mps 702 mmHg 81%

    Tomorrow, 18 October, Wednesday

    Time Temperature Precipitation Wind Pressure Humidity
    00:00 +20°C° 0 mm 2 mps 701 mmHg 81%
    01:00 +20°C° 0 mm 2 mps 701 mmHg 80%
    02:00 +20°C° 0 mm 2 mps 701 mmHg 79%
    03:00 +19°C° 0 mm 2 mps 700 mmHg 78%
    04:00 +19°C° 0 mm 2 mps 700 mmHg 79%
    05:00 +19°C° 0 mm 2 mps 701 mmHg 79%
    06:00 +20°C° 0 mm 1 mps 701 mmHg 79%
    07:00 +21°C° 0 mm 2 mps 701 mmHg 70%
    08:00 +25°C° 0 mm 2 mps 702 mmHg 61%
    09:00 +27°C° 0 mm 2 mps 702 mmHg 52%
    10:00 +29°C° 0 mm 2 mps 702 mmHg 47%
    11:00 +30°C° 0 mm 2 mps 702 mmHg 41%
    12:00 +32°C° 0 mm 2 mps 702 mmHg 36%
    13:00 +32°C° 0 mm 2 mps 701 mmHg 36%
    14:00 +32°C° 0 mm 2 mps 701 mmHg 36%
    15:00 +32°C° 0 mm 2 mps 700 mmHg 35%
    16:00 +31°C° 0 mm 2 mps 700 mmHg 41%
    17:00 +29°C° 0 mm 2 mps 699 mmHg 47%
    18:00 +28°C° 0 mm 1 mps 699 mmHg 52%
    19:00 +27°C° 0 mm 1 mps 699 mmHg 55%
    20:00 +26°C° 0 mm 1 mps 699 mmHg 58%
    21:00 +25°C° 0 mm 1 mps 700 mmHg 60%
    22:00 +24°C° 0 mm 2 mps 699 mmHg 59%
    23:00 +24°C° 0 mm 2 mps 699 mmHg 58%

    Day after tomorrow, 19 October, Thursday

    Time Temperature Precipitation Wind Pressure Humidity
    00:00 +24°C° 0 mm 3 mps 699 mmHg 56%
    01:00 +24°C° 0 mm 3 mps 698 mmHg 55%
    02:00 +22°C° 0 mm 3 mps 698 mmHg 53%
    03:00 +22°C° 0 mm 3 mps 697 mmHg 52%
    04:00 +22°C° 0 mm 3 mps 697 mmHg 53%
    05:00 +21°C° 0 mm 3 mps 698 mmHg 53%
    06:00 +21°C° 0 mm 3 mps 698 mmHg 54%
    07:00 +23°C° 0 mm 4 mps 698 mmHg 49%
    08:00 +26°C° 0 mm 4 mps 699 mmHg 44%
    09:00 +29°C° 0 mm 4 mps 700 mmHg 39%
    10:00 +30°C° 0 mm 4 mps 700 mmHg 35%
    11:00 +33°C° 0 mm 4 mps 700 mmHg 32%
    12:00 +35°C° 0 mm 3 mps 700 mmHg 29%
    13:00 +35°C° 0 mm 3 mps 699 mmHg 28%
    14:00 +35°C° 0 mm 3 mps 698 mmHg 28%
    15:00 +35°C° 0 mm 3 mps 697 mmHg 28%
    16:00 +34°C° 0 mm 3 mps 697 mmHg 32%
    17:00 +31°C° 0 mm 2 mps 697 mmHg 36%
    18:00 +29°C° 0 mm 2 mps 697 mmHg 40%
    19:00 +29°C° 0 mm 2 mps 697 mmHg 41%
    20:00 +28°C° 0 mm 1 mps 697 mmHg 43%
    21:00 +27°C° 0 mm 1 mps 698 mmHg 44%
    22:00 +26°C° 0 mm 2 mps 698 mmHg 49%
    23:00 +25°C° 0 mm 2 mps 698 mmHg 54%

    20 October, Friday

    Time Temperature Precipitation Wind Pressure Humidity
    00:00 +25°C° 0 mm 2 mps 698 mmHg 59%
    01:00 +24°C° 0 mm 2 mps 697 mmHg 62%
    02:00 +24°C° 0 mm 1 mps 697 mmHg 64%
    03:00 +23°C° 0 mm 1 mps 697 mmHg 67%
    04:00 +23°C° 0 mm 1 mps 697 mmHg 68%
    05:00 +23°C° 0 mm 2 mps 697 mmHg 70%
    06:00 +21°C° 0 mm 2 mps 698 mmHg 72%
    07:00 +23°C° 0 mm 2 mps 699 mmHg 69%
    08:00 +24°C° 0 mm 3 mps 699 mmHg 66%
    09:00 +26°C° 0 mm 3 mps 700 mmHg 63%
    10:00 +27°C° 0 mm 3 mps 700 mmHg 59%
    11:00 +28°C° 0 mm 3 mps 700 mmHg 55%
    12:00 +29°C° 0 mm 3 mps 700 mmHg 51%
    13:00 +28°C° 0.1 mm 3 mps 699 mmHg 55%
    14:00 +27°C° 0.1 mm 3 mps 699 mmHg 59%
    15:00 +26°C° 0.1 mm 3 mps 698 mmHg 63%
    16:00 +25°C° 0.1 mm 3 mps 698 mmHg 68%
    17:00 +24°C° 0.1 mm 2 mps 698 mmHg 73%
    18:00 +23°C° 0.1 mm 2 mps 698 mmHg 77%
    19:00 +23°C° 0.1 mm 2 mps 698 mmHg 79%
    20:00 +21°C° 0.1 mm 2 mps 699 mmHg 81%
    21:00 +21°C° 0.1 mm 2 mps 699 mmHg 83%
    22:00 +21°C° 0 mm 2 mps 699 mmHg 82%
    23:00 +21°C° 0 mm 2 mps 698 mmHg 82%

    21 October, Saturday

    Time Temperature Precipitation Wind Pressure Humidity
    00:00 +21°C° 0 mm 2 mps 698 mmHg 82%
    01:00 +21°C° 0 mm 2 mps 697 mmHg 80%
    02:00 +21°C° 0 mm 2 mps 697 mmHg 79%
    03:00 +21°C° 0 mm 2 mps 696 mmHg 77%
    04:00 +21°C° 0 mm 2 mps 697 mmHg 74%
    05:00 +21°C° 0 mm 2 mps 697 mmHg 70%
    06:00 +21°C° 0 mm 2 mps 697 mmHg 67%
    07:00 +25°C° 0 mm 3 mps 697 mmHg 58%
    08:00 +27°C° 0 mm 4 mps 698 mmHg 49%
    09:00 +29°C° 0 mm 5 mps 699 mmHg 40%
    10:00 +30°C° 0 mm 5 mps 698 mmHg 37%
    11:00 +32°C° 0 mm 5 mps 698 mmHg 35%
    12:00 +34°C° 0 mm 6 mps 698 mmHg 32%
    13:00 +33°C° 0 mm 5 mps 697 mmHg 34%
    14:00 +33°C° 0 mm 5 mps 697 mmHg 35%
    15:00 +33°C° 0 mm 4 mps 696 mmHg 37%
    16:00 +31°C° 0 mm 3 mps 697 mmHg 41%
    17:00 +29°C° 0 mm 3 mps 697 mmHg 45%
    18:00 +28°C° 0 mm 2 mps 697 mmHg 49%
    19:00 +27°C° 0.6 mm 2 mps 698 mmHg 57%
    20:00 +25°C° 0.6 mm 3 mps 698 mmHg 66%
    21:00 +22°C° 0.6 mm 3 mps 698 mmHg 75%
    22:00 +22°C° 0.8 mm 3 mps 698 mmHg 75%
    23:00 +22°C° 0.8 mm 3 mps 697 mmHg 75%

    22 October, Sunday

    Time Temperature Precipitation Wind Pressure Humidity
    00:00 +22°C° 0.8 mm 3 mps 696 mmHg 75%
    01:00 +22°C° 0.1 mm 3 mps 696 mmHg 75%
    02:00 +23°C° 0.1 mm 2 mps 696 mmHg 76%
    03:00 +23°C° 0.1 mm 2 mps 695 mmHg 76%
    04:00 +23°C° 0.1 mm 2 mps 696 mmHg 75%
    05:00 +23°C° 0.1 mm 2 mps 696 mmHg 74%
    06:00 +23°C° 0.1 mm 2 mps 697 mmHg 73%
    07:00 +24°C° 0.1 mm 2 mps 697 mmHg 69%
    08:00 +25°C° 0.1 mm 2 mps 697 mmHg 66%
    09:00 +26°C° 0.1 mm 2 mps 698 mmHg 63%
    10:00 +27°C° 0.1 mm 3 mps 698 mmHg 58%
    11:00 +29°C° 0.1 mm 4 mps 698 mmHg 53%
    12:00 +30°C° 0.1 mm 5 mps 698 mmHg 48%
    13:00 +29°C° 0.2 mm 4 mps 698 mmHg 50%
    14:00 +29°C° 0.2 mm 3 mps 697 mmHg 52%
    15:00 +28°C° 0.2 mm 3 mps 697 mmHg 54%
    16:00 +27°C° 1.7 mm 3 mps 697 mmHg 62%
    17:00 +25°C° 1.7 mm 2 mps 697 mmHg 70%
    18:00 +24°C° 1.7 mm 2 mps 697 mmHg 79%
    19:00 +24°C° 0.6 mm 2 mps 697 mmHg 79%
    20:00 +23°C° 0.6 mm 2 mps 697 mmHg 80%
    21:00 +23°C° 0.6 mm 2 mps 697 mmHg 81%
    22:00 +23°C° 0.2 mm 2 mps 697 mmHg 81%
    23:00 +23°C° 0.2 mm 2 mps 696 mmHg 82%
    Show more